Timeline UpdatesTrip UpdatesNews PostsPvt Posts♥♥Travel TipsAdmin PostsConv PostsFollowed PostsChat RequestsBlog PostsPNR Posts

Disclaimer
Search
 
 
Wed Oct 22, 2014 13:32:13 ISTHomeTrainsΣChainsAtlasPNRForumGalleryNewsFAQTripsMembersLoginFeedback
No Recent News for this Train
Other Trains in the News **new
Latest...
.
Mon Aug 26, 2013 (09:43AM)
⇐ Return Journey: Train# 11027

11028/Chennai-Mumbai CST Mail

Time-Table HAS CHANGED.
Sep 03 2014 (10:10PM)
Change Departure Station:
Change Arrival Station:
Post a Train Travel TipPost a Train Travel Tip **new
Post a Comment/Question/Picture/VideoPost a Comment/Question/Picture/Video
Pantry/Catering
✓ Pantry Car Avbl
✓ Catering Avbl
RSA - Rake Sharing
11041 Mumbai Chennai Express
Rake/Coach Composition
Loco >SLR >UR >RMS>A1 >B1 >S10 To > S6 >PC >S5 To >S1>UR >LDS >S11 (S11 From Solapur To Daund Junction )
Loco
MAS-GTL=> LGD WAP-4 GTL-PUNE=> GY WDM-3A PUNE-CSTM=> KYN WCAM #2P/3
News    PNR    Forum    Time-Table    Availability    Fare Chart    Map    Arr/Dep History    Trips    Gallery    ΣChains    X/O    Timeline    
Travel Time: 16h 22m    29 halts    Distance: 685 km    Avg Speed: 41 km/hr
Type: Mail/Express
Zone: CR/Central
Departs @ 22:50 (Avg 3m late)
Platform# 1
SMTWTFS
Chennai Central/MAS 
Arrives @ 15:12 +1 night (Avg 4m late)
Platform# 1
SMTWTFS
Shahabad/SDB 

29 halts. 111 intermediate Stations between Chennai Central and Shahabad

Show ALL intermediate Stations  Show Old Time-Table

#TrkCodeStation NameX/OArrivesAvgDepartsAvgHaltPFDay#KmSpeedElevZoneAddress
1/==/MASChennai Central (12)»  -22:50+3110.0649mSRChennai 600003, Tamil Nadu
2/==/TRLTiruvallur (6)  23:29+1123:30+121m--141.74950mSRTiruvallur, Tamil Nadu
3/==/AJJArakkonam Junction (8)  00:01 00:03+600:05+74 2m--268.74591mSRArakkonam, Tamil Nadu
4/==/TRTTiruttani (3)  00:24+700:25+81m3283.06384mSRTiruttani, Tamil Nadu
5/==/PUTPuttur (3)O  00:54+1000:55+121m12113.322149mSRPuttur, Andhra Pradesh
6/==/RURenigunta Junction (5)X  02:00+002:20 02:05+1620 5m12136.763113mSCRChittoor District, Andhra Pradesh
7/==/KOUKoduru (2)  02:59 02:44+1703:00 02:45+181m22177.669215mSCRKadapa (YSR District), Andhra Pradesh
8/==/RJPRazampeta (2)  03:29 03:14+1903:30 03:15+201m22211.245144mSCRKadapa (YSR District), Andhra Pradesh
9/==/NRENandalur  03:44 03:29+2003:45 03:30+211m--2221.746143mSCRRayalaseema Region, Andhra Pradesh
10/==/HXKadapa (3)X  04:34 04:23+804:35 04:25+101 2m32262.275146mSCRCuddapah, Andhra Pradesh
11/==/KKMKamalapuram (2)X  04:54 04:44+1204:55 04:45+121m--2285.949141mSCRKadapa (YSR District), Andhra Pradesh
12/==/YAYerraguntla (2)  05:09 05:04+1405:10 05:05+151m--2301.370171mSCRKadapa / Cuddapah (YSR District), Andhra Pradesh
13/==/MOOMuddanuru (3)X  05:24 05:19+2105:25 05:20+211m--2317.632194mSCRKadapa (YSR District), Andhra Pradesh
14/==/KDPKondapuram (2)  06:04+306:05+121m--2341.265214mSCRKadapa (YSR District), Andhra Pradesh
15/==/TUTadipatri (3)06:31+1306:32+141m12369.267243mSCRAnantapuram Dist, Andhra Pradesh
16/==/RLORayala Cheruvu (2)X  06:54+1906:55+201m12393.722292mSCRRayalacheruvu, Andhra Pradesh
17/==/GYGooty Junction (2)  07:59+508:00+81m22417.357370mSCRNH 7 Anantapur District, Andhra Pradesh
18/==/GTLGuntakal Junction (6)X08:30+1208:50+1920m52445.975453mSCRGuntakal. Tel: 08552-227131/32, Andhra Pradesh
19%==%NRRNagarur (2)  09:39 09:24+2909:40 09:25+291m22488.463427mSCRKurnool, Andhra Pradesh
20%==%ADAdoni (4)  09:59 09:34+2810:00 09:35+301m42497.962420mSCRAdoni Tel: 08512-252368, Andhra Pradesh
21%==%KGLKupgal (2)  10:14 09:49+3410:15 09:50+351m12512.391417mSCRKurnool Dist., Andhra Pradesh
22%==%KOKosigi (2)  10:24 09:59+4010:25 10:00+421m22526.024379mSCRKurnool Dist., Andhra Pradesh
23%==%MALMMantralayam Road (3)X  10:59 10:33+2611:00 10:35+411 2m12539.175335mSCRKurnool Tel: 08512-259830, Andhra Pradesh
24%==%MTUMatmari  11:14 10:44+4411:15 10:45+441m12550.357371mSCRRaichur, Karnataka
25%==%RCRaichur Junction (3)  11:54 11:03+4311:55 11:05+481 2m22567.563406mSCRRaichur, Karnataka
26%==%KSNKrishna (2)  12:19 11:29+5212:20 11:30+531m22592.764352mSCRDist Mahabubnagar, Telangana
27%==%SADPSaidapur (3)  12:37 11:49+5512:38 11:50+561m22613.042377mSCRYadgir Dist., Karnataka
28%==%YGYadgir (3)  12:56 12:23+4812:57 12:25+1:031 2m22636.180369mSCRYadgir, Karnataka
29%==%NWNalwar (2)X  13:31 12:44+1:0713:32 12:45+1:241m12661.56406mSCRGulbarga, Karnataka
30%==%WADIWadi Junction (4)  14:55+115:00+25m32675.250431mCRWadi, Karnataka
31%==%SDBShahabad (3)•  15:12+415:13+61m12685.355403mCRShahabad, Karnataka
32%==!GRGulbarga (4)  15:44 15:42+215:45+61 3m12712.061458mCRGulbarga 585101, Karnataka
33!==!GURGanagapur Road16:11+816:12+141m12738.443445mCRDist Gulbarga, Karnataka
34!==!DUDDudhani (2)X  16:44+1716:45+221m12761.458457mCRSolapur, Maharashtra
35!==!AKORAkalkot Road (2)  17:14+2417:15+271m12789.364456mCRDist Solapur, Maharashtra
36!==|HGHotgi Junction (3)  17:41 17:34+2717:42 17:35+271m22809.626473mCRHotgi 413215, Maharashtra
37|==|SURSolapur (5)18:10+1218:20+1710m32824.669461mCRSolapur 413001, Maharashtra
38|==!MOMohol (2)XO  18:49+2118:50+221m12857.972458mCRSolapur, Maharashtra
39!==!MAMadha (2)X  19:15+2219:16+241m12887.750481mCRSolapur, Maharashtra
40!==!KWVKurduvadi Junction (4)O  19:36 19:35+2319:37+251 2m22903.660516mCRKurduvadi Dist-Solapur, Maharashtra
41!==!KEMKem (2)  19:55+2719:56+321m12921.754548mCRKem, Maharashtra
42!==!JEURJeur (1)  20:14+3120:15+341m12937.856526mCRJeur, Maharashtra
43!==%BGVNBhigwan (2)X  21:04+2421:05+251m12983.837509mCRDaund, Maharashtra
44%==%DDDaund Junction (7)21:50+721:55+155m621011.550521mCRNew Daund Dist. Pune 413801, Maharashtra
45/==/PUNEPune Junction (6)23:25+323:40+815m321087.140556mCRPune 411001, Maharashtra
46/==/KKKhadki (3)  23:49+1623:50+161m221093.164562mCRPune 411003, Maharashtra
47/==/LNLLonavala (3)  00:44+900:45+111m231150.736623mCRLonavala 410401, Maharashtra
48/==/KJTKarjat Junction (4)X  01:34 01:33+1101:35+131 2m231179.45657mCRKarjat, Maharashtra
49/==/KYNKalyan Junction (8)  02:29 02:25+1102:30+101 5m731226.29310mCRKalyan 421301, Maharashtra
50/==/TNAThane (10)  02:44 02:43+2202:45+241 2m631246.45810mCRThane (West) 400602, Maharashtra
51/==/DRMumbai Dadar Central (8)  03:14 03:10+2203:15+231 5m631270.7177mCRMumbai 400014, Maharashtra
52/==/CSTMMumbai CST (18)  03:45+5-1631279.3-10mCRMumbai 400001, Maharashtra
Scroll to Top
Scroll to Bottom